GW0126 Weather Reports


time (UTC)temp
F
wind
direction
speed
knots
gust
knots
rain 1hr
in
rain 24hr
in
rain mn
in
humidity
%
barometer
mb
20260507172157 51 186 0.0 0.0 0.00 0.00 0.00 81 1016.6
20260507170117 52 186 0.0 0.0 0.00 0.00 0.00 81 1016.0
20260507165607 52 187 0.0 0.0 0.00 0.00 0.00 82 1016.3
20260507164626 52 186 0.0 0.9 0.00 0.00 0.00 81 1016.1
20260507164118 52 185 0.0 0.9 0.00 0.00 0.00 81 1016.1
20260507163527 52 185 0.0 0.0 0.00 0.00 0.00 80 1016.2
20260507163021 52 186 0.0 0.9 0.00 0.00 0.00 81 1016.0
20260507162507 52 198 0.9 0.9 0.00 0.00 0.00 80 1015.9
20260507161957 52 213 0.0 0.9 0.00 0.00 0.00 79 1016.2
20260507160937 52 206 0.0 0.9 0.00 0.00 0.00 79 1016.0
20260507155958 53 196 0.9 0.9 0.00 0.00 0.00 79 1016.0
20260507154900 53 201 0.9 1.7 0.00 0.00 0.00 78 1016.0
20260507154347 53 201 0.0 0.9 0.00 0.00 0.00 78 1016.2
20260507153405 53 169 0.0 1.7 0.00 0.00 0.00 76 1015.8
20260507152820 53 202 0.9 1.7 0.00 0.00 0.00 76 1015.6
20260507152307 53 184 0.0 0.9 0.00 0.00 0.00 75 1015.8
20260507151836 53 176 0.9 0.9 0.00 0.00 0.00 74 1015.8
20260507150815 54 254 0.9 0.9 0.00 0.00 0.00 71 1015.6
20260507145207 53 256 0.0 0.9 0.00 0.00 0.00 72 1015.4
20260507144657 54 255 0.9 1.7 0.00 0.00 0.00 70 1015.2
20260507144147 54 273 1.7 2.6 0.00 0.00 0.00 72 1015.3
20260507143719 54 172 0.9 0.9 0.00 0.00 0.00 72 1015.2
20260507142617 53 260 0.9 0.9 0.00 0.00 0.00 74 1015.4
20260507141047 54 228 0.0 0.9 0.00 0.00 0.00 72 1015.3
20260507135517 53 245 0.9 1.7 0.00 0.00 0.00 73 1015.3
20260507135010 53 209 0.9 0.9 0.00 0.00 0.00 74 1015.2
20260507133947 53 252 0.0 0.9 0.00 0.00 0.00 75 1015.2
20260507133050 53 246 0.0 1.7 0.00 0.00 0.00 75 1015.2
20260507132417 53 222 0.0 0.9 0.00 0.00 0.00 74 1015.1
20260507131357 53 236 0.9 1.7 0.00 0.00 0.00 74 1015.1
20260507125827 53 154 2.6 7.0 0.00 0.00 0.00 74 1015.0
20260507124807 53 196 0.0 0.9 0.00 0.00 0.00 74 1014.9
20260507123746 53 227 0.9 1.7 0.00 0.00 0.00 73 1014.8
20260507123237 53 246 0.0 0.9 0.00 0.00 0.00 74 1014.8
20260507122726 53 211 0.0 0.0 0.00 0.00 0.00 75 1014.6
20260507122339 53 228 0.9 0.9 0.00 0.00 0.00 74 1014.9
20260507121709 53 228 0.9 0.9 0.00 0.00 0.00 74 1014.8
20260507121156 53 216 0.9 1.7 0.00 0.00 0.00 74 1015.1
20260507115158 53 222 0.9 1.7 0.00 0.00 0.00 75 1014.9
20260507114606 52 220 0.0 0.9 0.00 0.00 0.00 76 1014.8
20260507113037 51 264 1.7 2.6 0.00 0.00 0.00 76 1014.8
20260507112016 51 242 0.0 2.6 0.00 0.00 0.00 77 1014.8
20260507111547 51 264 1.7 2.6 0.00 0.00 0.00 77 1014.8
20260507110956 51 236 0.0 1.7 0.00 0.00 0.00 77 1014.6
20260507110446 51 240 0.9 2.6 0.00 0.00 0.00 77 1014.9
20260507105936 50 243 1.7 2.6 0.00 0.00 0.00 78 1014.7
20260507105505 50 16 1.7 3.5 0.00 0.00 0.00 79 1014.8
20260507104406 50 217 0.9 1.7 0.00 0.00 0.00 80 1014.8
20260507103856 49 229 0.9 1.7 0.00 0.00 0.00 81 1014.8
20260507103346 49 189 0.9 1.7 0.00 0.00 0.00 81 1014.7
20260507102326 49 248 0.9 0.9 0.00 0.00 0.00 81 1014.6
20260507100756 49 230 0.9 1.7 0.00 0.00 0.00 82 1014.4
20260507100324 48 238 0.0 1.7 0.00 0.00 0.00 84 1014.4
20260507095736 48 204 0.0 1.7 0.00 0.00 0.00 84 1014.4
20260507094332 47 169 0.9 0.9 0.00 0.00 0.00 86 1014.3
20260507093656 47 329 2.6 3.5 0.00 0.00 0.00 86 1014.3
20260507093146 47 233 0.0 0.9 0.00 0.00 0.00 87 1014.1
20260507092126 47 247 0.9 1.7 0.00 0.00 0.00 88 1014.0
20260507091616 47 242 1.7 1.7 0.00 0.00 0.00 88 1013.9
20260507091144 47 224 0.0 0.9 0.00 0.00 0.00 89 1013.9
20260507090556 46 206 0.0 0.9 0.00 0.00 0.00 89 1013.8
20260507090046 46 269 0.9 1.7 0.00 0.00 0.00 90 1013.9
20260507085536 46 233 0.9 5.2 0.00 0.00 0.00 90 1013.7
20260507085026 46 1 0.9 1.7 0.00 0.00 0.00 90 1013.6
20260507084516 47 234 0.9 0.9 0.00 0.00 0.00 90 1013.6
20260507081926 47 251 1.7 1.7 0.00 0.00 0.00 87 1013.1
20260507081420 47 270 1.7 1.7 0.00 0.00 0.00 86 1013.3
20260507080944 48 243 0.0 1.7 0.00 0.00 0.00 85 1013.1
20260507080435 48 236 0.0 0.9 0.00 0.00 0.00 85 1013.1
20260507080008 47 234 0.0 1.7 0.00 0.00 0.00 85 1013.0
20260507075336 47 240 0.9 2.6 0.00 0.00 0.00 85 1012.9
20260507074825 47 255 0.9 2.6 0.00 0.00 0.00 85 1013.1
20260507074316 47 204 0.0 1.7 0.00 0.00 0.00 86 1013.0
20260507073805 47 300 0.9 2.6 0.00 0.00 0.00 85 1012.9
20260507073255 47 250 0.9 1.7 0.00 0.00 0.00 86 1012.6
20260507072746 47 182 0.9 1.7 0.00 0.00 0.00 87 1012.8
20260507072314 47 227 0.9 0.9 0.00 0.00 0.00 87 1013.0
20260507071725 46 280 0.0 1.7 0.00 0.00 0.00 87 1012.7
20260507070155 46 227 0.0 1.7 0.00 0.00 0.00 87 1012.5
20260507065724 46 244 0.9 1.7 0.00 0.00 0.00 87 1012.5
20260507065136 46 242 0.9 1.7 0.00 0.00 0.00 87 1012.6
20260507064625 46 219 0.0 1.7 0.00 0.00 0.00 87 1012.5
20260507064238 46 219 0.9 1.7 0.00 0.00 0.00 87 1012.5
20260507063605 46 185 1.7 2.6 0.00 0.00 0.00 87 1012.4
20260507063055 46 202 0.0 0.9 0.00 0.00 0.00 87 1012.5
20260507062545 46 226 0.9 1.7 0.00 0.00 0.00 87 1012.2
20260507062113 46 232 0.0 0.9 0.00 0.00 0.00 87 1012.0
20260507061525 46 232 0.9 0.9 0.00 0.00 0.00 88 1012.0
20260507061015 46 226 0.0 0.9 0.00 0.00 0.00 88 1011.9
20260507060034 46 242 0.9 0.9 0.00 0.00 0.00 88 1012.0
20260507054504 45 252 0.9 0.9 0.00 0.00 0.00 89 1011.9
20260507053915 45 227 0.0 1.7 0.00 0.00 0.00 90 1011.8
20260507053447 45 220 0.0 0.9 0.00 0.00 0.00 90 1011.8
20260507052855 45 227 0.9 0.9 0.00 0.00 0.00 90 1011.7
20260507052345 45 243 0.9 1.7 0.00 0.00 0.00 90 1011.6
20260507051835 45 229 0.0 0.0 0.00 0.00 0.00 89 1011.2
20260507051325 45 244 1.7 1.7 0.00 0.00 0.00 89 1011.3
20260507050815 45 220 0.0 0.0 0.00 0.00 0.00 89 1011.6
20260507050305 45 237 0.0 1.7 0.00 0.00 0.00 89 1011.6
20260507045755 45 226 0.0 0.9 0.00 0.00 0.00 89 1011.3
20260507044225 45 199 0.0 0.9 0.00 0.00 0.00 90 1011.3
20260507043715 45 238 0.0 0.9 0.00 0.00 0.00 89 1011.3
20260507043205 45 233 0.0 0.9 0.00 0.00 0.00 89 1011.4
20260507042734 45 233 0.0 0.9 0.00 0.00 0.00 89 1011.4
20260507042145 45 227 0.0 0.9 0.00 0.00 0.00 89 1011.3
20260507041635 45 224 0.0 1.7 0.00 0.00 0.00 89 1011.1
20260507041125 45 226 0.9 2.6 0.00 0.00 0.00 89 1011.0
20260507040143 45 233 0.9 1.7 0.00 0.00 0.00 90 1011.1
20260507035636 45 250 0.9 2.6 0.00 0.00 0.00 90 1011.0
20260507034616 45 197 0.0 0.9 0.00 0.00 0.00 91 1010.9
20260507034025 45 236 0.9 0.9 0.00 0.00 0.00 91 1011.0
20260507033515 45 209 0.0 1.7 0.00 0.00 0.00 91 1010.7
20260507033005 45 242 0.0 0.9 0.00 0.00 0.00 91 1010.7
20260507032458 45 221 0.0 0.9 0.00 0.00 0.00 91 1010.6
20260507031435 45 243 0.9 0.9 0.00 0.00 0.00 91 1010.6
20260507030415 45 222 0.0 0.9 0.00 0.00 0.00 91 1010.7
20260507025905 45 236 1.7 1.7 0.00 0.00 0.00 91 1010.7
20260507025355 45 233 0.0 1.7 0.00 0.00 0.00 91 1010.5
20260507023828 45 214 0.0 1.7 0.00 0.00 0.00 91 1010.6
20260507023353 45 192 0.9 1.7 0.00 0.00 0.00 92 1010.5
20260507022255 45 235 0.0 0.9 0.00 0.00 0.00 92 1010.6
20260507021823 45 233 0.0 1.7 0.00 0.00 0.00 92 1010.4
20260507021313 45 230 0.9 1.7 0.00 0.00 0.00 92 1010.3
20260507020725 45 235 0.0 1.7 0.00 0.00 0.00 92 1010.5
20260507013624 45 212 0.0 1.7 0.00 0.00 0.00 92 1010.7
20260507013115 45 231 0.0 0.0 0.00 0.00 0.00 92 1010.5
20260507012133 45 241 0.9 3.5 0.00 0.00 0.00 92 1010.2
20260507011545 45 248 0.9 0.9 0.00 0.00 0.00 92 1010.4
20260507010524 45 221 0.0 1.7 0.00 0.00 0.00 92 1010.3
20260507004447 45 232 0.0 3.5 0.00 0.00 0.00 92 1009.9
20260507004012 44 238 0.9 2.6 0.00 0.00 0.00 92 1009.8
20260507002915 45 233 0.0 2.6 0.00 0.00 0.00 92 1009.6
20260507001854 45 213 0.0 0.0 0.00 0.00 0.00 92 1009.7
20260507000324 45 233 0.0 0.9 0.00 0.00 0.00 92 1009.6
20260506235814 45 249 0.9 1.7 0.00 0.00 0.00 91 1009.8
20260506235343 45 223 0.9 0.9 0.00 0.00 0.00 91 1009.9
20260506234757 45 228 0.0 0.9 0.00 0.00 0.00 92 1009.8
20260506234244 45 218 0.9 0.9 0.00 0.00 0.00 92 1009.8
20260506233734 45 257 0.9 2.6 0.00 0.00 0.00 91 1009.9
20260506233224 45 244 0.9 1.7 0.00 0.00 0.00 92 1009.9
20260506232714 45 221 0.0 0.9 0.00 0.00 0.00 92 1009.7
20260506231654 45 229 0.9 3.5 0.00 0.00 0.00 92 1009.8
20260506230635 45 233 0.0 3.5 0.00 0.00 0.00 92 1009.6
20260506225614 46 248 0.0 0.9 0.00 0.00 0.00 94 1009.7
20260506224554 46 237 0.9 1.7 0.00 0.00 0.00 94 1009.4
20260506224044 46 296 0.9 2.6 0.00 0.00 0.00 93 1009.4
20260506222552 47 276 0.9 1.7 0.00 0.00 0.00 93 1009.3
20260506222004 47 241 1.7 2.6 0.00 0.00 0.00 93 1009.4
20260506221454 47 310 1.7 2.6 0.00 0.00 0.00 92 1009.4
20260506220944 48 276 1.7 1.7 0.00 0.00 0.00 92 1009.1
20260506220434 48 223 0.0 3.5 0.00 0.00 0.00 93 1009.1
20260506215924 48 235 0.9 0.9 0.00 0.00 1.13 93 1009.1
20260506214904 49 241 0.0 1.7 0.00 0.00 1.13 93 1009.1
20260506213334 49 261 0.9 0.9 0.00 0.00 1.13 94 1008.9
20260506212827 49 228 0.0 1.7 0.00 0.00 1.13 94 1008.8
20260506211804 49 284 1.7 1.7 0.00 0.00 1.13 94 1008.9
20260506211254 50 227 0.0 0.9 0.00 0.00 1.13 94 1008.9
20260506210744 50 229 0.0 0.9 0.00 0.00 1.13 94 1008.7
20260506205727 50 230 0.0 0.9 0.00 0.00 1.13 94 1008.8
20260506204154 50 213 0.0 0.9 0.00 0.00 1.13 95 1008.8
20260506203647 50 238 0.9 2.6 0.00 0.00 1.13 95 1008.8
20260506202624 50 231 0.0 1.7 0.00 0.00 1.13 94 1008.7
20260506201726 50 238 0.0 1.7 0.00 0.00 1.13 94 1008.7
20260506201132 50 244 0.0 0.9 0.00 0.00 1.13 94 1008.6
20260506200544 50 218 0.0 0.9 0.00 0.00 1.13 94 1008.7
20260506195524 50 230 0.0 0.9 0.00 0.00 1.13 95 1008.7
20260506195014 50 255 0.9 1.7 0.00 0.00 1.13 95 1008.4
20260506194504 50 229 0.0 0.9 0.00 0.00 1.13 95 1008.4
20260506193444 50 231 0.0 0.0 0.00 0.00 1.13 95 1008.4
20260506192934 50 233 0.0 0.0 0.00 0.00 1.13 95 1008.2
20260506192423 50 238 0.0 0.9 0.00 0.00 1.13 95 1008.4
20260506191914 50 223 0.0 0.0 0.00 0.00 1.13 95 1008.6
20260506191442 51 229 0.0 0.0 0.00 0.00 1.13 95 1008.3
20260506190854 51 228 0.0 0.0 0.00 0.00 1.13 95 1008.4
20260506190422 51 250 0.9 0.9 0.00 0.00 1.13 95 1008.3
20260506185915 50 245 0.0 0.9 0.00 0.00 1.13 95 1008.0
20260506184814 51 240 0.9 2.6 0.00 0.00 1.13 94 1007.8
20260506183754 51 244 0.0 0.9 0.00 0.00 1.13 94 1007.8
20260506182224 51 247 0.9 0.9 0.00 0.00 1.13 94 1007.8
20260506181752 51 253 0.9 1.7 0.00 0.00 1.13 94 1007.8
20260506181203 51 238 0.0 0.9 0.00 0.00 1.13 94 1007.6
20260506180143 51 242 0.9 1.7 0.00 0.00 1.13 93 1007.6
20260506175633 52 234 0.0 0.9 0.00 0.00 1.13 93 1007.5
20260506174103 52 220 0.0 0.9 0.00 0.00 1.13 94 1007.3
20260506172612 52 199 0.9 1.7 0.00 0.00 1.13 94 1007.6